GW2490 Weather Reports


Display with metric or nautical units.
time (UTC)temp
F
wind
direction
speed
MPH
gust
MPH
rain 1hr
in
rain 24hr
in
rain mn
in
humidity
%
barometer
mb
20260831225457 66 302 5.0 8.0 0.00 0.00 0.00 63 1010.1
20260831225409 0 0.0 0.0 0.00 0.00 0.00
20260831224957 66 301 5.0 9.0 0.00 0.00 0.00 62 1010.0
20260831224909 0 0.0 0.0 0.00 0.00 0.00
20260831224458 66 296 4.0 9.0 0.00 0.00 0.00 62 1010.0
20260831224409 0 0.0 0.0 0.00 0.00 0.00
20260831223957 65 307 6.0 9.0 0.00 0.00 0.00 63 1010.1
20260831223909 0 0.0 0.0 0.00 0.00 0.00
20260831223457 66 296 7.0 11.0 0.00 0.00 0.00 66 1010.1
20260831222959 66 290 5.0 9.0 0.00 0.00 0.00 66 1010.2
20260831222909 0 0.0 0.0 0.00 0.00 0.00
20260831222458 65 305 5.0 8.0 0.00 0.00 0.00 68 1010.3
20260831222409 0 0.0 0.0 0.00 0.00 0.00
20260831221958 66 307 4.0 7.0 0.00 0.00 0.00 65 1010.4
20260831221910 0 0.0 0.0 0.00 0.00 0.00
20260831221458 66 286 3.0 6.0 0.00 0.00 0.00 66 1010.4
20260831221410 0 0.0 0.0 0.00 0.00 0.00
20260831220958 66 296 5.0 9.0 0.00 0.00 0.00 65 1010.4
20260831220906 0 0.0 0.0 0.00 0.00 0.00
20260831220458 65 309 4.0 8.0 0.00 0.00 0.00 66 1010.5
20260831215957 64 315 6.0 9.0 0.00 0.00 0.00 69 1010.6
20260831215459 64 307 6.0 8.0 0.00 0.00 0.00 70 1010.9
20260831214957 64 304 5.0 9.0 0.00 0.00 0.00 69 1010.9
20260831214907 0 0.0 0.0 0.00 0.00 0.00
20260831214459 65 309 5.0 8.0 0.00 0.00 0.00 69 1010.8
20260831214408 0 0.0 0.0 0.00 0.00 0.00
20260831213959 65 302 5.0 9.0 0.00 0.00 0.00 68 1010.7
20260831213907 0 0.0 0.0 0.00 0.00 0.00
20260831213457 66 292 3.0 8.0 0.00 0.00 0.00 67 1010.7
20260831212957 65 299 5.0 7.0 0.00 0.00 0.00 69 1010.9
20260831212458 65 308 6.0 11.0 0.00 0.00 0.00 69 1010.9
20260831212404 0 0.0 0.0 0.00 0.00 0.00
20260831211958 65 293 6.0 12.0 0.00 0.00 0.00 69 1010.9
20260831211904 0 0.0 0.0 0.00 0.00 0.00
20260831211458 65 309 6.0 10.0 0.00 0.00 0.00 70 1010.9
20260831211401 0 0.0 0.0 0.00 0.00 0.00
20260831210957 65 307 3.0 8.0 0.00 0.00 0.00 70 1010.9
20260831210902 0 0.0 0.0 0.00 0.00 0.00
20260831210457 65 278 4.0 8.0 0.00 0.00 0.00 69 1011.0
20260831210401 0 0.0 0.0 0.00 0.00 0.00
20260831210000 65 283 6.0 11.0 0.00 0.00 0.00 69 1011.1
20260831205902 0 0.0 0.0 0.00 0.00 0.00
20260831205459 65 286 5.0 9.0 0.00 0.00 0.00 70 1011.1
20260831205000 64 300 2.0 6.0 0.00 0.00 0.00 72 1011.1
20260831204902 0 0.0 0.0 0.00 0.00 0.00
20260831204457 64 300 6.0 13.0 0.00 0.00 0.00 71 1011.2
20260831204358 0 0.0 0.0 0.00 0.00 0.00
20260831204001 63 296 5.0 11.0 0.00 0.00 0.00 72 1011.3
20260831203900 0 0.0 0.0 0.00 0.00 0.00
20260831203457 63 301 6.0 8.0 0.00 0.00 0.00 72 1011.5
20260831203359 0 0.0 0.0 0.00 0.00 0.00
20260831202957 63 293 3.0 6.0 0.00 0.00 0.00 72 1011.6
20260831202900 0 0.0 0.0 0.00 0.00 0.00
20260831202458 63 288 4.0 8.0 0.00 0.00 0.00 71 1011.6
20260831202359 0 0.0 0.0 0.00 0.00 0.00
20260831201958 63 309 5.0 9.0 0.00 0.00 0.00 71 1011.7
20260831201859 0 0.0 0.0 0.00 0.00 0.00
20260831201458 64 294 4.0 7.0 0.00 0.00 0.00 69 1011.9
20260831201357 0 0.0 0.0 0.00 0.00 0.00
20260831200957 64 292 3.0 12.0 0.00 0.00 0.00 68 1011.9
20260831200856 0 0.0 0.0 0.00 0.00 0.00
20260831200457 65 266 6.0 9.0 0.00 0.00 0.00 66 1011.7
20260831195957 64 313 6.0 10.0 0.00 0.00 0.00 66 1011.7
20260831195458 64 307 4.0 7.0 0.00 0.00 0.00 65 1011.7
20260831195357 0 0.0 0.0 0.00 0.00 0.00
20260831194958 64 277 4.0 6.0 0.00 0.00 0.00 67 1011.8
20260831194458 64 297 5.0 7.0 0.00 0.00 0.00 67 1011.9
20260831194356 0 0.0 0.0 0.00 0.00 0.00
20260831193958 64 295 4.0 8.0 0.00 0.00 0.00 67 1011.9
20260831193857 0 0.0 0.0 0.00 0.00 0.00
20260831193458 64 316 4.0 8.0 0.00 0.00 0.00 66 1012.0
20260831193357 0 0.0 0.0 0.00 0.00 0.00
20260831192957 64 296 6.0 9.0 0.00 0.00 0.00 67 1012.1
20260831192857 0 0.0 0.0 0.00 0.00 0.00
20260831192459 64 284 4.0 10.0 0.00 0.00 0.00 67 1012.0
20260831192357 0 0.0 0.0 0.00 0.00 0.00
20260831191957 64 272 3.0 7.0 0.00 0.00 0.00 67 1012.0
20260831191854 0 0.0 0.0 0.00 0.00 0.00
20260831191457 63 293 4.0 8.0 0.00 0.00 0.00 67 1012.2
20260831191355 0 0.0 0.0 0.00 0.00 0.00
20260831190958 63 275 4.0 7.0 0.00 0.00 0.00 68 1012.2
20260831190852 0 0.0 0.0 0.00 0.00 0.00
20260831190458 63 275 4.0 7.0 0.00 0.00 0.00 69 1012.4
20260831190351 0 0.0 0.0 0.00 0.00 0.00
20260831185958 63 298 4.0 8.0 0.00 0.00 0.00 68 1012.5
20260831185458 63 269 4.0 9.0 0.00 0.00 0.00 68 1012.2
20260831184957 63 281 5.0 10.0 0.00 0.00 0.00 68 1012.3
20260831184852 0 0.0 0.0 0.00 0.00 0.00
20260831184458 63 294 3.0 6.0 0.00 0.00 0.00 68 1012.2
20260831184352 0 0.0 0.0 0.00 0.00 0.00
20260831183958 63 283 2.0 4.0 0.00 0.00 0.00 69 1012.4
20260831183851 0 0.0 0.0 0.00 0.00 0.00
20260831183458 63 300 4.0 6.0 0.00 0.00 0.00 69 1012.4
20260831183352 0 0.0 0.0 0.00 0.00 0.00
20260831182957 63 301 5.0 9.0 0.00 0.00 0.00 69 1012.5
20260831182853 0 0.0 0.0 0.00 0.00 0.00
20260831182458 63 273 5.0 8.0 0.00 0.00 0.00 67 1012.6
20260831182352 0 0.0 0.0 0.00 0.00 0.00
20260831181959 62 301 3.0 4.0 0.00 0.00 0.00 69 1012.7
20260831181458 62 291 3.0 6.0 0.00 0.00 0.00 70 1012.7
20260831181352 0 0.0 0.0 0.00 0.00 0.00
20260831180958 62 295 3.0 5.0 0.00 0.00 0.00 69 1012.7
20260831180850 0 0.0 0.0 0.00 0.00 0.00
20260831180457 62 297 4.0 6.0 0.00 0.00 0.00 69 1012.6
20260831180354 0 0.0 0.0 0.00 0.00 0.00
20260831175957 62 295 4.0 9.0 0.00 0.00 0.00 69 1012.6
20260831175850 0 0.0 0.0 0.00 0.00 0.00
20260831175458 62 303 2.0 5.0 0.00 0.00 0.00 70 1012.6
20260831175351 0 0.0 0.0 0.00 0.00 0.00
20260831174957 61 298 4.0 6.0 0.00 0.00 0.00 70 1012.7
20260831174850 0 0.0 0.0 0.00 0.00 0.00
20260831174459 61 311 4.0 6.0 0.00 0.00 0.00 71 1012.8
20260831173957 61 299 4.0 6.0 0.00 0.00 0.00 72 1013.2
20260831173458 60 313 3.0 5.0 0.00 0.00 0.00 72 1013.3
20260831173350 0 0.0 0.0 0.00 0.00 0.00
20260831172958 60 310 3.0 6.0 0.00 0.00 0.00 73 1013.3
20260831172850 0 0.0 0.0 0.00 0.00 0.00
20260831172457 60 299 3.0 5.0 0.00 0.00 0.00 73 1013.3
20260831172350 0 0.0 0.0 0.00 0.00 0.00
20260831171957 61 313 4.0 5.0 0.00 0.00 0.00 73 1013.3
20260831171850 0 0.0 0.0 0.00 0.00 0.00
20260831171502 61 300 2.0 5.0 0.00 0.00 0.00 72 1013.4
20260831171348 0 0.0 0.0 0.00 0.00 0.00
20260831170958 61 310 2.0 5.0 0.00 0.00 0.00 72 1013.5
20260831170847 0 0.0 0.0 0.00 0.00 0.00
20260831170458 61 262 2.0 3.0 0.00 0.00 0.00 73 1013.5
20260831165958 61 258 2.0 5.0 0.00 0.00 0.00 72 1013.6
20260831165848 0 0.0 0.0 0.00 0.00 0.00
20260831165458 61 172 3.0 6.0 0.00 0.00 0.00 72 1013.6
20260831164958 60 176 1.0 2.0 0.00 0.00 0.00 72 1013.5
20260831164847 0 0.0 0.0 0.00 0.00 0.00
20260831164500 60 227 2.0 3.0 0.00 0.00 0.00 72 1013.4
20260831164348 0 0.0 0.0 0.00 0.00 0.00
20260831164000 60 130 1.0 2.0 0.00 0.00 0.00 73 1013.4
20260831163847 0 0.0 0.0 0.00 0.00 0.00
20260831163457 60 131 2.0 3.0 0.00 0.00 0.00 74 1013.5
20260831163349 0 0.0 0.0 0.00 0.00 0.00
20260831162957 60 213 1.0 2.0 0.00 0.00 0.00 74 1013.4
20260831162848 0 0.0 0.0 0.00 0.00 0.00
20260831162457 61 221 1.0 2.0 0.00 0.00 0.00 74 1013.3
20260831161958 60 235 2.0 3.0 0.00 0.00 0.00 72 1013.3
20260831161846 0 0.0 0.0 0.00 0.00 0.00
20260831161458 60 227 1.0 3.0 0.00 0.00 0.00 75 1013.4
20260831161347 0 0.0 0.0 0.00 0.00 0.00
20260831160958 60 159 1.0 2.0 0.00 0.00 0.00 75 1013.5
20260831160846 0 0.0 0.0 0.00 0.00 0.00
20260831160459 60 134 0.0 2.0 0.00 0.00 0.00 77 1013.4
20260831160347 0 0.0 0.0 0.00 0.00 0.00
20260831155958 60 285 0.0 3.0 0.00 0.00 0.00 76 1013.3
20260831155847 0 0.0 0.0 0.00 0.00 0.00
20260831155458 59 128 0.0 2.0 0.00 0.00 0.00 74 1013.3
20260831154958 59 179 1.0 2.0 0.00 0.00 0.00 76 1013.4
20260831154847 0 0.0 0.0 0.00 0.00 0.00
20260831154458 58 156 2.0 2.0 0.00 0.00 0.00 79 1013.4
20260831153958 58 190 1.0 2.0 0.00 0.00 0.00 77 1013.4
20260831153847 0 0.0 0.0 0.00 0.00 0.00
20260831153504 58 143 0.0 1.0 0.00 0.00 0.00 79 1013.5
20260831153348 0 0.0 0.0 0.00 0.00 0.00
20260831152957 57 86 0.0 2.0 0.00 0.00 0.00 79 1013.5
20260831152458 56 159 1.0 2.0 0.00 0.00 0.00 81 1013.6
20260831152347 0 0.0 0.0 0.00 0.00 0.00
20260831151957 56 290 0.0 1.0 0.00 0.00 0.00 81 1013.8
20260831151846 0 0.0 0.0 0.00 0.00 0.00
20260831151457 56 228 1.0 2.0 0.00 0.00 0.00 80 1013.7
20260831151346 0 0.0 0.0 0.00 0.00 0.00
20260831150957 56 320 1.0 3.0 0.00 0.00 0.00 81 1013.7
20260831150846 0 0.0 0.0 0.00 0.00 0.00
20260831150457 56 360 1.0 2.0 0.00 0.00 0.00 82 1013.8
20260831150345 0 0.0 0.0 0.00 0.00 0.00
20260831145958 56 329 2.0 3.0 0.00 0.00 0.00 81 1013.8
20260831145838 0 0.0 0.0 0.00 0.00 0.00
20260831145457 56 325 0.0 2.0 0.00 0.00 0.00 80 1013.8
20260831144958 56 329 1.0 1.0 0.00 0.00 0.00 80 1013.9
20260831144837 0 0.0 0.0 0.00 0.00 0.00
20260831144459 56 360 0.0 0.0 0.00 0.00 0.00 79 1013.8
20260831144338 0 0.0 0.0 0.00 0.00 0.00
20260831143958 56 56 0.0 2.0 0.00 0.00 0.00 80 1013.8
20260831143837 0 0.0 0.0 0.00 0.00 0.00
20260831143458 56 225 1.0 2.0 0.00 0.00 0.00 79 1013.8
20260831143335 0 0.0 0.0 0.00 0.00 0.00
20260831142958 56 28 0.0 2.0 0.00 0.00 0.00 81 1013.7
20260831142835 0 0.0 0.0 0.00 0.00 0.00
20260831142457 55 114 0.0 2.0 0.00 0.00 0.00 82 1013.7
20260831142335 0 0.0 0.0 0.00 0.00 0.00
20260831141957 55 58 1.0 2.0 0.00 0.00 0.00 84 1013.8
20260831141835 0 0.0 0.0 0.00 0.00 0.00
20260831141459 54 168 0.0 0.0 0.00 0.00 0.00 87 1013.8
20260831141335 0 0.0 0.0 0.00 0.00 0.00
20260831140958 53 267 0.0 1.0 0.00 0.00 0.00 89 1013.8
20260831140836 0 0.0 0.0 0.00 0.00 0.00
20260831140458 53 20 0.0 1.0 0.00 0.00 0.00 90 1013.8
20260831135958 53 340 2.0 3.0 0.00 0.00 0.00 90 1013.7
20260831135833 0 0.0 0.0 0.00 0.00 0.00
20260831135458 53 336 2.0 4.0 0.00 0.00 0.00 90 1013.7
20260831135332 0 0.0 0.0 0.00 0.00 0.00
20260831134957 53 357 1.0 3.0 0.00 0.00 0.00 89 1013.6
20260831134833 0 0.0 0.0 0.00 0.00 0.00
20260831134457 54 329 3.0 4.0 0.00 0.00 0.00 88 1013.7
20260831134333 0 0.0 0.0 0.00 0.00 0.00
20260831133957 54 328 3.0 4.0 0.00 0.00 0.00 86 1013.8
20260831133833 0 0.0 0.0 0.00 0.00 0.00
20260831133458 55 327 3.0 4.0 0.00 0.00 0.00 83 1013.8
20260831133334 0 0.0 0.0 0.00 0.00 0.00
20260831132957 55 21 1.0 2.0 0.00 0.00 0.00 83 1013.8
20260831132833 0 0.0 0.0 0.00 0.00 0.00
20260831132458 56 310 0.0 1.0 0.00 0.00 0.00 82 1013.9
20260831132333 0 0.0 0.0 0.00 0.00 0.00
20260831131959 55 360 0.0 2.0 0.00 0.00 0.00 82 1013.9
20260831131833 0 0.0 0.0 0.00 0.00 0.00
20260831131458 55 153 0.0 1.0 0.00 0.00 0.00 82 1014.0
20260831131334 0 0.0 0.0 0.00 0.00 0.00
20260831130958 55 349 1.0 3.0 0.00 0.00 0.00 83 1014.0
20260831130831 0 0.0 0.0 0.00 0.00 0.00
20260831130501 55 57 0.0 2.0 0.00 0.00 0.00 82 1014.2
20260831130330 0 0.0 0.0 0.00 0.00 0.00
20260831125958 55 39 1.0 2.0 0.00 0.00 0.00 81 1014.2
20260831125827 0 0.0 0.0 0.00 0.00 0.00
20260831125458 55 22 0.0 1.0 0.00 0.00 0.00 81 1014.2
20260831125328 0 0.0 0.0 0.00 0.00 0.00
20260831124957 55 311 2.0 2.0 0.00 0.00 0.00 81 1014.3
20260831124828 0 0.0 0.0 0.00 0.00 0.00
20260831124457 55 218 0.0 0.0 0.00 0.00 0.00 81 1014.4
20260831124328 0 0.0 0.0 0.00 0.00 0.00
20260831123958 54 26 1.0 2.0 0.00 0.00 0.00 82 1014.4
20260831123828 0 0.0 0.0 0.00 0.00 0.00
20260831123457 55 360 0.0 0.0 0.00 0.00 0.00 81 1014.4
20260831123328 0 0.0 0.0 0.00 0.00 0.00
20260831122958 55 43 0.0 1.0 0.00 0.00 0.00 81 1014.5
20260831122828 0 0.0 0.0 0.00 0.00 0.00
20260831122457 55 55 1.0 2.0 0.00 0.00 0.00 80 1014.5
20260831122328 0 0.0 0.0 0.00 0.00 0.00
20260831121958 55 78 1.0 2.0 0.00 0.00 0.00 79 1014.5
20260831121829 0 0.0 0.0 0.00 0.00 0.00
20260831121458 55 32 1.0 2.0 0.00 0.00 0.00 79 1014.6
20260831121326 0 0.0 0.0 0.00 0.00 0.00
20260831120958 55 18 1.0 2.0 0.00 0.00 0.00 80 1014.5
20260831120825 0 0.0 0.0 0.00 0.00 0.00
20260831120458 55 358 1.0 2.0 0.00 0.00 0.00 80 1014.5
20260831120322 0 0.0 0.0 0.00 0.00 0.00
20260831115957 55 28 0.0 1.0 0.00 0.00 0.00 80 1014.5
20260831115823 0 0.0 0.0 0.00 0.00 0.00
20260831115459 55 22 1.0 2.0 0.00 0.00 0.00 80 1014.6
20260831114957 55 65 0.0 1.0 0.00 0.00 0.00 79 1014.7
20260831114819 0 0.0 0.0 0.00 0.00 0.00
20260831114457 55 55 1.0 3.0 0.00 0.00 0.00 79 1014.7
20260831113958 55 8 1.0 3.0 0.00 0.00 0.00 79 1014.8
20260831113820 0 0.0 0.0 0.00 0.00 0.00
20260831113459 56 7 1.0 2.0 0.00 0.00 0.00 78 1014.8
20260831113319 0 0.0 0.0 0.00 0.00 0.00
20260831112959 56 12 1.0 2.0 0.00 0.00 0.00 79 1014.8
20260831112820 0 0.0 0.0 0.00 0.00 0.00
20260831112458 56 304 0.0 2.0 0.00 0.00 0.00 78 1014.9
20260831111958 56 43 2.0 2.0 0.00 0.00 0.00 77 1014.8
20260831111820 0 0.0 0.0 0.00 0.00 0.00
20260831111458 56 40 1.0 2.0 0.00 0.00 0.00 78 1014.8
20260831111317 0 0.0 0.0 0.00 0.00 0.00
20260831110958 56 20 1.0 2.0 0.00 0.00 0.00 78 1014.9
20260831110818 0 0.0 0.0 0.00 0.00 0.00
20260831110458 56 26 1.0 3.0 0.00 0.00 0.00 78 1014.9
20260831105957 56 38 1.0 2.0 0.00 0.00 0.00 76 1014.9
20260831105818 0 0.0 0.0 0.00 0.00 0.00
20260831105458 56 75 1.0 3.0 0.00 0.00 0.00 77 1015.0
20260831105318 0 0.0 0.0 0.00 0.00 0.00
20260831104957 56 39 0.0 1.0 0.00 0.00 0.00 77 1015.1
20260831104817 0 0.0 0.0 0.00 0.00 0.00
20260831104459 56 42 0.0 1.0 0.00 0.00 0.00 76 1015.0
20260831104314 0 0.0 0.0 0.00 0.00 0.00
20260831103958 56 35 0.0 2.0 0.00 0.00 0.00 76 1015.0
20260831103458 56 40 2.0 3.0 0.00 0.00 0.00 77 1015.1
20260831103315 0 0.0 0.0 0.00 0.00 0.00
20260831102958 56 42 1.0 2.0 0.00 0.00 0.00 77 1015.0
20260831102816 0 0.0 0.0 0.00 0.00 0.00
20260831102458 56 23 1.0 2.0 0.00 0.00 0.00 77 1015.0
20260831102316 0 0.0 0.0 0.00 0.00 0.00
20260831101957 56 25 1.0 3.0 0.00 0.00 0.00 77 1015.1
20260831101815 0 0.0 0.0 0.00 0.00 0.00
20260831101459 56 30 1.0 2.0 0.00 0.00 0.00 76 1015.1
20260831101315 0 0.0 0.0 0.00 0.00 0.00
20260831100957 56 48 1.0 2.0 0.00 0.00 0.00 76 1015.2
20260831100812 0 0.0 0.0 0.00 0.00 0.00
20260831100505 56 36 1.0 2.0 0.00 0.00 0.00 76 1015.3
20260831100312 0 0.0 0.0 0.00 0.00 0.00
20260831095957 56 64 0.0 2.0 0.00 0.00 0.00 77 1015.5
20260831095457 56 49 0.0 1.0 0.00 0.00 0.00 76 1015.5
20260831095310 0 0.0 0.0 0.00 0.00 0.00
20260831094957 56 43 0.0 3.0 0.00 0.00 0.00 77 1015.5
20260831094457 56 23 1.0 2.0 0.00 0.00 0.00 76 1015.6
20260831094307 0 0.0 0.0 0.00 0.00 0.00
20260831093958 56 27 1.0 2.0 0.00 0.00 0.00 76 1015.6
20260831093807 0 0.0 0.0 0.00 0.00 0.00
20260831093457 55 16 1.0 2.0 0.00 0.00 0.00 77 1015.6
20260831093307 0 0.0 0.0 0.00 0.00 0.00
20260831092957 55 29 2.0 3.0 0.00 0.00 0.00 76 1015.6
20260831092808 0 0.0 0.0 0.00 0.00 0.00
20260831092458 56 45 2.0 3.0 0.00 0.00 0.00 76 1015.7
20260831092307 0 0.0 0.0 0.00 0.00 0.00
20260831091958 55 49 1.0 2.0 0.00 0.00 0.00 76 1015.8
20260831091806 0 0.0 0.0 0.00 0.00 0.00
20260831091457 55 42 1.0 3.0 0.00 0.00 0.00 77 1015.9
20260831091304 0 0.0 0.0 0.00 0.00 0.00
20260831090959 55 35 2.0 3.0 0.00 0.00 0.00 77 1015.9
20260831090804 0 0.0 0.0 0.00 0.00 0.00
20260831090458 55 39 2.0 2.0 0.00 0.00 0.00 77 1015.9
20260831090305 0 0.0 0.0 0.00 0.00 0.00
20260831085958 56 55 2.0 3.0 0.00 0.00 0.00 77 1015.9
20260831085804 0 0.0 0.0 0.00 0.00 0.00
20260831085502 56 33 2.0 3.0 0.00 0.00 0.00 77 1016.0
20260831085306 0 0.0 0.0 0.00 0.00 0.00
20260831084958 55 42 2.0 3.0 0.00 0.00 0.00 78 1016.1
20260831084805 0 0.0 0.0 0.00 0.00 0.00
20260831084500 55 28 2.0 3.0 0.00 0.00 0.00 78 1016.2
20260831084305 0 0.0 0.0 0.00 0.00 0.00
20260831083958 56 40 2.0 2.0 0.00 0.00 0.00 79 1016.2
20260831083805 0 0.0 0.0 0.00 0.00 0.00
20260831083457 56 39 2.0 3.0 0.00 0.00 0.00 79 1016.2
20260831083305 0 0.0 0.0 0.00 0.00 0.00
20260831082958 56 45 2.0 2.0 0.00 0.00 0.00 78 1016.2
20260831082805 0 0.0 0.0 0.00 0.00 0.00
20260831082458 56 44 2.0 4.0 0.00 0.00 0.00 78 1016.4
20260831082307 0 0.0 0.0 0.00 0.00 0.00
20260831081957 56 27 2.0 2.0 0.00 0.00 0.00 77 1016.5
20260831081805 0 0.0 0.0 0.00 0.00 0.00
20260831081457 56 32 2.0 2.0 0.00 0.00 0.00 77 1016.4
20260831081305 0 0.0 0.0 0.00 0.00 0.00
20260831080958 56 43 1.0 2.0 0.00 0.00 0.00 77 1016.5
20260831080803 0 0.0 0.0 0.00 0.00 0.00
20260831080457 56 44 1.0 2.0 0.00 0.00 0.00 78 1016.5
20260831080302 0 0.0 0.0 0.00 0.00 0.00
20260831075957 56 42 2.0 2.0 0.00 0.00 0.00 79 1016.5
20260831075803 0 0.0 0.0 0.00 0.00 0.00
20260831075458 56 33 2.0 3.0 0.00 0.00 0.00 79 1016.6
20260831075259 0 0.0 0.0 0.00 0.00 0.00
20260831074958 56 38 2.0 3.0 0.00 0.00 0.00 80 1016.6
20260831074757 0 0.0 0.0 0.00 0.00 0.00
20260831074457 56 41 0.0 2.0 0.00 0.00 0.00 80 1016.7
20260831073957 56 21 2.0 3.0 0.00 0.00 0.00 80 1016.7
20260831073757 0 0.0 0.0 0.00 0.00 0.00
20260831073458 56 35 2.0 3.0 0.00 0.00 0.00 80 1016.8
20260831072958 56 41 2.0 3.0 0.00 0.00 0.00 80 1016.9
20260831072756 0 0.0 0.0 0.00 0.00 0.00
20260831072457 56 36 2.0 2.0 0.00 0.00 0.00 80 1017.0
20260831072256 0 0.0 0.0 0.00 0.00 0.00
20260831071958 56 38 1.0 3.0 0.00 0.00 0.00 79 1017.0
20260831071755 0 0.0 0.0 0.00 0.00 0.00
20260831071501 56 36 2.0 4.0 0.00 0.00 0.00 79 1017.0
20260831070958 56 38 2.0 2.0 0.00 0.00 0.00 79 1017.0
20260831070755 0 0.0 0.0 0.00 0.00 0.00
20260831070457 56 30 2.0 2.0 0.00 0.00 0.00 79 1017.1
20260831070256 0 0.0 0.0 0.00 0.00 0.00
20260831065957 56 40 1.0 2.0 0.00 0.00 0.00 79 1017.1
20260831065756 0 0.0 0.0 0.00 0.00 0.00
20260831065457 56 37 2.0 3.0 0.00 0.00 0.00 79 1017.1
20260831065255 0 0.0 0.0 0.00 0.00 0.00
20260831064957 56 40 2.0 3.0 0.00 0.00 0.00 79 1017.1
20260831064457 56 40 1.0 2.0 0.00 0.00 0.00 78 1017.1
20260831064255 0 0.0 0.0 0.00 0.00 0.00
20260831063957 56 41 2.0 3.0 0.00 0.00 0.00 78 1017.2
20260831063755 0 0.0 0.0 0.00 0.00 0.00
20260831063459 56 26 2.0 3.0 0.00 0.00 0.00 77 1017.2
20260831063255 0 0.0 0.0 0.00 0.00 0.00
20260831062957 56 17 2.0 3.0 0.00 0.00 0.00 77 1017.3
20260831062756 0 0.0 0.0 0.00 0.00 0.00
20260831062457 56 38 2.0 3.0 0.00 0.00 0.00 78 1017.2
20260831062256 0 0.0 0.0 0.00 0.00 0.00
20260831061957 56 31 1.0 2.0 0.00 0.00 0.00 77 1017.3
20260831061755 0 0.0 0.0 0.00 0.00 0.00
20260831061457 56 39 2.0 2.0 0.00 0.00 0.00 78 1017.4
20260831061253 0 0.0 0.0 0.00 0.00 0.00
20260831060958 56 38 2.0 3.0 0.00 0.00 0.00 77 1017.4
20260831060457 56 32 2.0 3.0 0.00 0.00 0.00 77 1017.4
20260831060253 0 0.0 0.0 0.00 0.00 0.00
20260831055958 56 36 2.0 2.0 0.00 0.00 0.00 77 1017.5
20260831055753 0 0.0 0.0 0.00 0.00 0.00
20260831055457 56 41 2.0 2.0 0.00 0.00 0.00 77 1017.5
20260831055254 0 0.0 0.0 0.00 0.00 0.00
20260831054957 56 32 1.0 2.0 0.00 0.00 0.00 76 1017.5
20260831054753 0 0.0 0.0 0.00 0.00 0.00
20260831054458 56 30 2.0 3.0 0.00 0.00 0.00 75 1017.5
20260831054252 0 0.0 0.0 0.00 0.00 0.00
20260831053957 56 30 2.0 2.0 0.00 0.00 0.00 76 1017.5
20260831053750 0 0.0 0.0 0.00 0.00 0.00
20260831053458 56 32 2.0 3.0 0.00 0.00 0.00 78 1017.6
20260831053256 0 0.0 0.0 0.00 0.00 0.00
20260831052958 56 38 2.0 2.0 0.00 0.00 0.00 78 1017.6
20260831052458 56 33 1.0 2.0 0.00 0.00 0.00 78 1017.6
20260831052251 0 0.0 0.0 0.00 0.00 0.00
20260831051957 56 45 1.0 2.0 0.00 0.00 0.00 79 1017.7
20260831051457 56 42 1.0 2.0 0.00 0.00 0.00 78 1017.7
20260831050957 57 45 2.0 3.0 0.00 0.00 0.00 78 1017.8
20260831050750 0 0.0 0.0 0.00 0.00 0.00
20260831050458 57 47 2.0 3.0 0.00 0.00 0.00 78 1017.8
20260831050251 0 0.0 0.0 0.00 0.00 0.00
20260831045958 57 57 2.0 3.0 0.00 0.00 0.00 78 1017.9
20260831045458 57 39 2.0 3.0 0.00 0.00 0.00 77 1017.9
20260831044958 57 58 1.0 2.0 0.00 0.00 0.00 77 1017.9
20260831044751 0 0.0 0.0 0.00 0.00 0.00
20260831044457 58 61 1.0 2.0 0.00 0.00 0.00 77 1017.9
20260831044251 0 0.0 0.0 0.00 0.00 0.00
20260831043957 58 71 2.0 2.0 0.00 0.00 0.00 77 1017.9
20260831043458 58 62 1.0 2.0 0.00 0.00 0.00 77 1018.0
20260831043251 0 0.0 0.0 0.00 0.00 0.00
20260831042957 58 60 1.0 3.0 0.00 0.00 0.00 77 1018.0
20260831042751 0 0.0 0.0 0.00 0.00 0.00
20260831042458 58 68 2.0 3.0 0.00 0.00 0.00 76 1018.0
20260831042251 0 0.0 0.0 0.00 0.00 0.00
20260831041957 58 73 2.0 4.0 0.00 0.00 0.00 76 1018.1
20260831041754 0 0.0 0.0 0.00 0.00 0.00
20260831041458 58 72 2.0 3.0 0.00 0.00 0.00 76 1018.1
20260831041250 0 0.0 0.0 0.00 0.00 0.00
20260831040958 58 71 2.0 4.0 0.00 0.00 0.00 76 1018.1
20260831040754 0 0.0 0.0 0.00 0.00 0.00
20260831040457 58 92 2.0 4.0 0.00 0.00 0.00 75 1018.1
20260831040254 0 0.0 0.0 0.00 0.00 0.00
20260831035958 58 87 3.0 4.0 0.00 0.00 0.00 75 1018.2
20260831035750 0 0.0 0.0 0.00 0.00 0.00
20260831035458 58 89 4.0 6.0 0.00 0.00 0.00 74 1018.2
20260831035250 0 0.0 0.0 0.00 0.00 0.00
20260831034958 58 92 3.0 3.0 0.00 0.00 0.00 74 1018.2
20260831034754 0 0.0 0.0 0.00 0.00 0.00
20260831034458 58 97 2.0 4.0 0.00 0.00 0.00 74 1018.2
20260831034247 0 0.0 0.0 0.00 0.00 0.00
20260831033957 58 79 2.0 4.0 0.00 0.00 0.00 73 1018.1
20260831033458 58 95 3.0 4.0 0.00 0.00 0.00 73 1018.1
20260831033247 0 0.0 0.0 0.00 0.00 0.00
20260831032957 58 96 4.0 5.0 0.00 0.00 0.00 72 1018.0
20260831032744 0 0.0 0.0 0.00 0.00 0.00
20260831032457 58 90 3.0 4.0 0.00 0.00 0.00 72 1018.0
20260831032244 0 0.0 0.0 0.00 0.00 0.00
20260831031957 58 99 3.0 4.0 0.00 0.00 0.00 72 1018.0
20260831031744 0 0.0 0.0 0.00 0.00 0.00
20260831031457 58 94 3.0 4.0 0.00 0.00 0.00 72 1017.9
20260831031244 0 0.0 0.0 0.00 0.00 0.00
20260831030958 59 95 3.0 4.0 0.00 0.00 0.00 72 1018.0
20260831030744 0 0.0 0.0 0.00 0.00 0.00
20260831030457 59 106 3.0 4.0 0.00 0.00 0.00 71 1018.0
20260831030244 0 0.0 0.0 0.00 0.00 0.00
20260831025958 59 103 3.0 4.0 0.00 0.00 0.00 71 1018.1
20260831025744 0 0.0 0.0 0.00 0.00 0.00
20260831025458 59 82 3.0 5.0 0.00 0.00 0.00 71 1018.1
20260831025244 0 0.0 0.0 0.00 0.00 0.00
20260831024957 59 117 3.0 5.0 0.00 0.00 0.00 71 1018.1
20260831024744 0 0.0 0.0 0.00 0.00 0.00
20260831024457 59 102 4.0 5.0 0.00 0.00 0.00 70 1018.1
20260831024241 0 0.0 0.0 0.00 0.00 0.00
20260831023958 59 120 2.0 4.0 0.00 0.00 0.00 70 1018.1
20260831023742 0 0.0 0.0 0.00 0.00 0.00
20260831023457 59 120 2.0 3.0 0.00 0.00 0.00 70 1018.1
20260831023241 0 0.0 0.0 0.00 0.00 0.00
20260831022957 60 112 2.0 3.0 0.00 0.00 0.00 69 1018.1
20260831022458 60 112 3.0 4.0 0.00 0.00 0.00 69 1018.1
20260831022242 0 0.0 0.0 0.00 0.00 0.00
20260831021957 60 86 3.0 4.0 0.00 0.00 0.00 68 1018.2
20260831021742 0 0.0 0.0 0.00 0.00 0.00
20260831021459 60 96 4.0 5.0 0.00 0.00 0.00 68 1018.1
20260831021242 0 0.0 0.0 0.00 0.00 0.00
20260831020959 60 110 3.0 3.0 0.00 0.00 0.00 68 1018.2
20260831020742 0 0.0 0.0 0.00 0.00 0.00
20260831020457 60 119 2.0 3.0 0.00 0.00 0.00 67 1018.2
20260831020243 0 0.0 0.0 0.00 0.00 0.00
20260831015957 60 80 3.0 4.0 0.00 0.00 0.00 67 1018.3
20260831015742 0 0.0 0.0 0.00 0.00 0.00
20260831015458 60 120 2.0 2.0 0.00 0.00 0.00 67 1018.3
20260831015243 0 0.0 0.0 0.00 0.00 0.00
20260831014957 60 109 2.0 3.0 0.00 0.00 0.00 67 1018.3
20260831014742 0 0.0 0.0 0.00 0.00 0.00
20260831014457 60 124 2.0 3.0 0.00 0.00 0.00 66 1018.3
20260831014240 0 0.0 0.0 0.00 0.00 0.00
20260831013958 60 135 1.0 2.0 0.00 0.00 0.00 67 1018.3
20260831013740 0 0.0 0.0 0.00 0.00 0.00
20260831013458 60 126 2.0 3.0 0.00 0.00 0.00 66 1018.4
20260831013240 0 0.0 0.0 0.00 0.00 0.00
20260831012957 60 138 2.0 2.0 0.00 0.00 0.00 67 1018.4
20260831012740 0 0.0 0.0 0.00 0.00 0.00
20260831012457 60 112 2.0 3.0 0.00 0.00 0.00 67 1018.5
20260831012245 0 0.0 0.0 0.00 0.00 0.00
20260831011958 60 135 2.0 4.0 0.00 0.00 0.00 67 1018.5
20260831011740 0 0.0 0.0 0.00 0.00 0.00
20260831011459 60 152 2.0 2.0 0.00 0.00 0.00 67 1018.5
20260831011241 0 0.0 0.0 0.00 0.00 0.00
20260831011000 60 109 2.0 4.0 0.00 0.00 0.00 67 1018.5
20260831010740 0 0.0 0.0 0.00 0.00 0.00
20260831010458 60 145 2.0 4.0 0.00 0.00 0.00 68 1018.5
20260831010240 0 0.0 0.0 0.00 0.00 0.00
20260831005957 60 128 2.0 3.0 0.00 0.00 0.00 68 1018.6
20260831005457 60 158 2.0 2.0 0.00 0.00 0.00 68 1018.6
20260831005241 0 0.0 0.0 0.00 0.00 0.00
20260831004957 60 113 2.0 3.0 0.00 0.00 0.00 68 1018.6
20260831004741 0 0.0 0.0 0.00 0.00 0.00
20260831004457 61 160 1.0 2.0 0.00 0.00 0.00 68 1018.6
20260831004238 0 0.0 0.0 0.00 0.00 0.00
20260831003958 60 119 1.0 2.0 0.00 0.00 0.00 69 1018.6
20260831003737 0 0.0 0.0 0.00 0.00 0.00
20260831003457 60 143 2.0 3.0 0.00 0.00 0.00 69 1018.7
20260831003235 0 0.0 0.0 0.00 0.00 0.00
20260831002957 60 116 2.0 3.0 0.00 0.00 0.00 68 1018.7
20260831002501 60 120 1.0 2.0 0.00 0.00 0.00 68 1018.8
20260831001958 60 171 1.0 3.0 0.00 0.00 0.00 69 1018.8
20260831001735 0 0.0 0.0 0.00 0.00 0.00
20260831001457 60 78 3.0 5.0 0.00 0.00 0.00 69 1018.9
20260831001235 0 0.0 0.0 0.00 0.00 0.00
20260831000957 60 166 2.0 2.0 0.00 0.00 0.00 71 1018.9
20260831000734 0 0.0 0.0 0.00 0.00 0.00
20260831000458 60 170 2.0 3.0 0.00 0.00 0.00 71 1018.9
20260831000235 0 0.0 0.0 0.00 0.00 0.00
20260830235957 60 141 0.0 2.0 0.00 0.00 0.00 72 1019.0
20260830235736 0 0.0 0.0 0.00 0.00 0.00
20260830235457 60 118 2.0 3.0 0.00 0.00 0.00 72 1019.0
20260830234958 60 153 2.0 2.0 0.00 0.00 0.00 73 1019.1
20260830234735 0 0.0 0.0 0.00 0.00 0.00
20260830234458 60 111 1.0 2.0 0.00 0.00 0.00 73 1019.1
20260830234232 0 0.0 0.0 0.00 0.00 0.00
20260830233958 60 169 2.0 2.0 0.00 0.00 0.00 72 1019.1
20260830233503 60 191 2.0 3.0 0.00 0.00 0.00 72 1019.1
20260830233233 0 0.0 0.0 0.00 0.00 0.00
20260830232957 60 150 2.0 3.0 0.00 0.00 0.00 73 1019.1
20260830232733 0 0.0 0.0 0.00 0.00 0.00
20260830232457 60 168 2.0 3.0 0.00 0.00 0.00 72 1019.2
20260830232232 0 0.0 0.0 0.00 0.00 0.00
20260830231957 60 152 2.0 4.0 0.00 0.00 0.00 72 1019.2
20260830231733 0 0.0 0.0 0.00 0.00 0.00
20260830231457 61 175 4.0 6.0 0.00 0.00 0.00 71 1019.2
20260830231233 0 0.0 0.0 0.00 0.00 0.00
20260830230957 61 179 3.0 5.0 0.00 0.00 0.00 71 1019.2
20260830230733 0 0.0 0.0 0.00 0.00 0.00
20260830230458 61 131 2.0 3.0 0.00 0.00 0.00 70 1019.1
20260830230233 0 0.0 0.0 0.00 0.00 0.00
20260830225957 61 147 2.0 4.0 0.00 0.00 0.00 71 1019.1
20260830225734 0 0.0 0.0 0.00 0.00 0.00